Regional Weather Roundup
Issued by NWS San Diego, CA

Home | Current Version | Previous Version | Text Only | Print | Product List | Glossary On
Versions: 1 2 3 4 5 6 7 8 9 10 11 12 13 14 15 16 17 18 19 20 21 22 23 24 25 26 27 28 29 30 31 32 33 34 35 36 37 38 39 40 41 42 43 44 45 46 47 48 49 50
000
ASUS46 KSGX 290511
RWRSGX

SAN DIEGO HOURLY WEATHER ROUNDUP
NATIONAL WEATHER SERVICE SAN DIEGO CA
1000 PM PDT SAT MAR 28 2015

NOTE: "FAIR" INDICATES FEW OR NO CLOUDS BELOW 12,000 FEET WITH NO
SIGNIFICANT WEATHER AND/OR OBSTRUCTIONS TO VISIBILITY.

CAZ042-043-060-061-PZZ750-775-290600-

GREATER SAN DIEGO AREA

CITY           SKY/WX    TMP DP  RH WIND       PRES   REMARKS
LINDBERGH FLD  CLOUDY    65  59  81 NW5       30.06S
POINT LOMA       N/A     60  57  91 NW9         N/A
CHULA VISTA      N/A     64  61  89 CALM      29.99R
IMPERIAL BEACH MOCLDY    59  58  96 S3        30.06S
BROWN FIELD    MOCLDY    59  57  93 S3        30.06R
MIRAMAR MCAS   CLOUDY    63  57  81 N5        30.05S
MONTGOMERY FLD CLOUDY    64  58  80 N5        30.06R

$$

NORTH SAN DIEGO COUNTY

CITY           SKY/WX    TMP DP  RH WIND       PRES   REMARKS
CAMP PENDLETON MOCLDY    62  57  83 CALM      30.05R HAZE
OCEANSIDE AP   MOCLDY    63  59  87 CALM      30.04S
VISTA            N/A     62  56  80 CALM      30.03R
CARLSBAD       MOCLDY    63  59  87 VRB3      30.04F
SAN MARCOS       N/A     63  58  82 CALM      30.03R
POWAY            N/A     64  57  79 CALM      30.06R

$$

EAST SAN DIEGO COUNTY

CITY           SKY/WX    TMP DP  RH WIND       PRES   REMARKS
RAMONA         MOCLDY    56  38  50 CALM      30.08R
SANTEE LAKES     N/A     64  49  59 CALM      30.05S
LA MESA          N/A     65  55  70 CALM      29.99R
DESCANSO N       N/A     55  35  46 E3        29.95S
MT. LAGUNA OBS   N/A     58  11  15 CALM      29.81R
CAMPO            N/A     53  38  56 NE5       30.09R

$$

ORANGE COUNTY AND THE LOS ANGELES BASIN

CITY           SKY/WX    TMP DP  RH WIND       PRES   REMARKS
JOHN WAYNE AP  MOCLDY    62  58  86 S5        30.04R
LAKE FOREST FR   N/A     65  39  37 CALM      29.93R
SANTA ANA        N/A     65  56  73 CALM      29.99S
HUNTINGTON BCH   N/A     62  60  93 W3        30.05S
LOS ALAMITOS   FAIR      62  58  86 CALM      30.04R
FULLERTON      CLEAR     66  57  72 CALM      30.03R
LONG BEACH     PTCLDY    64  57  78 NW3       30.04R
L.A. AP        PTCLDY    60  57  89 SW5       30.05R
L.A. DOWNTOWN  CLEAR     63  58  83 CALM      30.04R

$$

THE INLAND EMPIRE

CITY           SKY/WX    TMP DP  RH WIND       PRES   REMARKS
CORONA         CLEAR     65  53  65 CALM      30.05R
CHINO          CLEAR     63  49  60 SE5       30.05R
ONTARIO        PTCLDY    68  48  48 E3        30.05R
RIVERSIDE AP   CLEAR     69  42  37 CALM      30.05R
MARCH ARB      CLEAR     60  29  31 W2        30.07R
HORSETHIEF CYN   N/A     64  30  27 S3        30.01R
HEMET EAST       N/A     67  25  21 CALM      30.05R
FRENCH VALLEY  FAIR      63  41  45 CALM      30.07F

$$

SAN BERNARDINO AND RIVERSIDE COUNTY MOUNTAINS

CITY           SKY/WX    TMP DP  RH WIND       PRES   REMARKS
BIG BEAR AP    CLEAR     37  18  44 CALM      30.31S

$$

SOUTHERN DESERT INCLUDING THE COACHELLA VALLEY

CITY           SKY/WX    TMP DP  RH WIND       PRES   REMARKS
PALM SPRINGS   CLEAR     86  29  12 NW13      29.96R
THOUSAND PALMS   N/A     84  32  15 NW10      29.93R
THERMAL        CLEAR     83  33  16 N10       29.90R
BLYTHE         CLEAR     79  30  16 W10       29.93R
IMPERIAL AP    PTCLDY    79  38  22 W8        29.91R
EL CENTRO NAS  PTCLDY    79  32  18 W10       29.92R
YUMA AZ        PTCLDY    78  41  26 SW5       29.93R
MEXICALI       PTCLDY    86  30  13 W5        29.93R

$$

UPPER DESERT

CITY           SKY/WX    TMP DP  RH WIND       PRES   REMARKS
VICTORVILLE AP CLEAR     66  23  19 SW5       30.11S
HESPERIA         N/A     67  28  23 W3        30.12S
APPLE VALLEY     N/A     67  29  24 CALM      30.13R
PALMDALE       CLEAR     60  21  22 SW5       30.10R
LANCASTER      CLEAR     65  37  35 W16       30.09R
EDWARDS AFB    CLEAR     64  36  35 SW8       30.06R
DAGGETT        CLEAR     75  23  14 W12       30.04R
29 PALMS N     CLEAR     74  22  14 W9        30.10R
NEEDLES        CLEAR     83  16   8 W12       29.95R

$$

REGIONAL REPORTS

CITY           SKY/WX    TMP DP  RH WIND       PRES   REMARKS
SANTA BARBARA  CLEAR     60  56  86 CALM      30.03R
SANDBERG       CLEAR     61  35  37 NW8       30.20S
MT. WILSON       N/A     54  12  19 S5          N/A
LAS VEGAS NV   CLEAR     76  19  11 S10       29.97R
PHOENIX AZ     PTCLDY    80  24  12 E6        29.96R
TIJUANA        CLOUDY    61  57  88 CALM      30.09R
ENSENADA NW      N/A     63  32  31 E3        30.04R

$$

OFFSHORE ISLANDS

CITY           SKY/WX    TMP DP  RH WIND       PRES   REMARKS
CATALINA ARPT  PTCLDY    70  39  32 SW3       30.08S
SAN NICOLAS IS PTCLDY   N/A N/A N/A W6        30.05R HAZE

$$

MARINE AND OFFSHORE BUOY REPORTS

STATION/POSITION SKY/WX   TEMP    WIND        PRES    SWELL
                          AIR SEA DIR/SP/G            HT/PER/DIR
                          (F)     (DEG/KT/KT) (MB)    (FT/S/D)
TANNER BANKS               60 61  310/ 12/ 14 1018.1R   7/300/13
S CLEMENTE BASIN           62 65  310/  8/ 10 1017.3R   7/210/17
SAN NICOLAS IS.               60                N/A     7/190/17
SO. S. ROSA ISLA           59 60  300/ 10/ 12 1016.8R   7/16
W. S. BARBARA CH           58 59  320/ 16/ 19 1016.1R   7/280/13
S. MONICA BASIN            62 64  300/  6/  8 1017.3R   3/220/17
S PEDRO CHANNEL               64                N/A     2/250/13
DANA POINT                    64                N/A     3/200/18
CMP PENDLETON NS              66                N/A     3/210/17
OCEANSIDE OFFSHR              66                N/A     3/190/17
TORREY PINES OTR              66                N/A     3/200/18
LA JOLLA 1                 63 66  300/  3/  3 1017.7R
MISSION BAY BUOY              66                N/A     5/200/18
SAN DIEGO BAY                 69              1018.0R
POINT LOMA SOUTH              66                N/A     5/200/17

$$



USA.gov is the U.S. government's official web portal to all federal, state and local government web resources and services.